Simultaneous Nadir Overpasses (SNOs) Predictions

Prediction of SNOs between GOES-15 and LANDSAT-8 Satellite Orbit:

Table of predicted SNOs for the next 14.0 days since TLE Epoch: 10/29/2022
Index Date Time (GOES-15) GOES-15 Lat,Lon LANDSAT-8 Lat,Lon Distance(km) Time Diff (sec)
1 10/29/2022 18:40:02 -0.26,-128.43 -0.67,-126.55 213.12 80
2 10/30/2022 07:01:26 0.26,-128.44 -0.45,-131.74 375.41 80
3 11/01/2022 06:49:15 0.25,-128.43 0.18,-128.79 40.51 80
4 11/03/2022 06:34:24 0.25,-128.42 0.83,-125.83 294.32 80
5 11/03/2022 18:55:39 -0.25,-128.39 0.31,-130.98 294.77 80
6 11/05/2022 18:46:07 -0.24,-128.38 -0.29,-128.02 40.40 80
7 11/07/2022 18:33:56 -0.24,-128.36 -0.97,-125.07 375.17 80
8 11/08/2022 06:55:20 0.24,-128.39 -0.13,-130.26 212.27 80
9 11/10/2022 06:40:27 0.24,-128.37 0.44,-127.29 121.85 80
10 11/10/2022 19:01:43 -0.23,-128.32 0.63,-132.45 468.85 80
